Gary, IN

7:03 AM CST on February 23, 2017 (GMT -0600)
Gary / Chicago

Weather History for KGYY - September, 2014

Change the Weather History Date:

Tuesday, September 9, 2014

  Actual Average Record
Temperature  
Mean Temperature 72 °F -  
Max Temperature 80 °F 79 °F 97 °F (1960)
Min Temperature 63 °F 55 °F 40 °F (1975)
Cooling Degree Days 6    
Growing Degree Days 22 (Base 50)    
Moisture  
Dew Point 59 °F    
Average Humidity 71    
Maximum Humidity 77    
Minimum Humidity 58    
Precipitation  
Precipitation 0.00 in - - ()
Sea Level Pressure  
Sea Level Pressure 29.97 in    
Wind  
Wind Speed 5 mph (SSE)    
Max Wind Speed 12 mph    
Max Gust Speed -    
Visibility 11 miles    
Events      
Averages and records for this station are not official NWS values.
T = Trace of Precipitation, MM = Missing Value Source: NWS Daily Summary

Daily Weather History Graph

Daily Weather History Graph

Search for Another Location

Airport or City:

Trip Planner

Search our weather history database for the weather conditions in past years. The results will help you decide how hot, cold, wet, or windy it might be!

Date:

Astronomy

Sep. 09, 2014 Rise Set
Actual Time 6:23 AM CDT 7:09 PM CDT
Civil Twilight 5:55 AM CDT 7:37 PM CDT
Nautical Twilight 5:22 AM CDT 8:10 PM CDT
Astronomical Twilight 4:47 AM CDT 8:44 PM CDT
Moon 7:27 PM CDT (9/9) 7:00 AM CDT (9/9)
Length of Visible Light 13h 41m
Length of Day
12h 45m
Waxing Gibbous, 99% of the Moon is Illuminated
Sep 9
Waxing Gibbous
Sep 15
Last Quarter
Sep 24
New
Oct 1
First Quarter
Oct 8
Full

Hourly Weather History & Observations

Time (CDT) Temp. Heat Index Dew Point Humidity Pressure Visibility Wind Dir Wind Speed Gust Speed Precip Events Conditions
12:15 AM 65.3 °F - 56.5 °F 73% 30.02 in 10.0 mi SSE 3.5 mph - N/A   Clear
12:35 AM 65.3 °F - 56.7 °F 74% 30.03 in 10.0 mi SSE 3.5 mph - N/A   Clear
12:55 AM 65.3 °F - 56.3 °F 73% 30.02 in 10.0 mi SSE 4.6 mph - N/A   Clear
1:15 AM 65.3 °F - 56.3 °F 73% 30.02 in 10.0 mi SE 4.6 mph - N/A   Clear
1:35 AM 65.5 °F - 56.3 °F 72% 30.02 in 10.0 mi South 3.5 mph - N/A   Scattered Clouds
1:55 AM 65.8 °F - 55.6 °F 69% 30.01 in 10.0 mi South 3.5 mph - N/A   Scattered Clouds
2:15 AM 64.0 °F - 56.3 °F 76% 29.99 in 10.0 mi SSE 3.5 mph - N/A   Clear
2:35 AM 63.5 °F - 56.3 °F 77% 30.01 in 10.0 mi Calm Calm - N/A   Clear
2:55 AM 64.4 °F - 55.8 °F 73% 30.02 in 10.0 mi South 3.5 mph - N/A   Clear
3:15 AM 64.4 °F - 55.9 °F 74% 30.02 in 10.0 mi South 3.5 mph - N/A   Clear
3:35 AM 64.6 °F - 56.1 °F 74% 30.02 in 10.0 mi Calm Calm - N/A   Clear
3:55 AM 64.9 °F - 55.6 °F 72% 30.01 in 10.0 mi South 3.5 mph - N/A   Clear
4:15 AM 65.3 °F - 55.4 °F 70% 30.01 in 10.0 mi SSE 3.5 mph - N/A   Clear
4:45 AM 64.4 °F - 55.4 °F 73% 30.01 in 10.0 mi South 4.6 mph - N/A   Mostly Cloudy
5:45 AM 64.4 °F - 55.4 °F 73% 30.02 in 10.0 mi South 5.8 mph - N/A   Mostly Cloudy
6:45 AM 64.4 °F - 55.4 °F 73% 30.02 in 10.0 mi South 9.2 mph - N/A   Mostly Cloudy
7:45 AM 64.4 °F - 55.4 °F 73% 30.02 in 10.0 mi South 5.8 mph - N/A   Mostly Cloudy
8:45 AM 66.2 °F - 57.2 °F 73% 30.01 in 10.0 mi SSE 6.9 mph - N/A   Mostly Cloudy
9:45 AM 69.8 °F - 60.8 °F 73% 30.03 in 10.0 mi South 9.2 mph - N/A   Mostly Cloudy
10:45 AM 73.4 °F - 62.6 °F 69% 30.01 in 10.0 mi South 9.2 mph - N/A   Mostly Cloudy
11:45 AM 75.2 °F - 60.8 °F 61% 30.00 in 15.0 mi South 9.2 mph - N/A   Mostly Cloudy
12:45 PM 75.2 °F - 62.6 °F 65% 29.98 in 15.0 mi South 11.5 mph - N/A   Scattered Clouds
1:45 PM 77.0 °F - 62.6 °F 61% 29.98 in 15.0 mi South 9.2 mph - N/A   Scattered Clouds
4:45 PM 80.6 °F 82.3 °F 64.4 °F 58% 29.92 in 15.0 mi South 6.9 mph - N/A   Scattered Clouds
5:45 PM - - - N/A% 29.91 in 15.0 mi South 5.8 mph - N/A   Mostly Cloudy
6:45 PM 77.0 °F - 64.4 °F 65% 29.89 in 15.0 mi SSE 6.9 mph - N/A   Overcast
8:45 PM 73.4 °F - 64.4 °F 73% 29.92 in 10.0 mi South 4.6 mph - N/A   Mostly Cloudy
9:15 PM 73.4 °F - 63.7 °F 71% 29.90 in 10.0 mi SSE 4.6 mph - N/A   Clear
9:35 PM 73.0 °F - 63.7 °F 72% 29.91 in 10.0 mi South 5.8 mph - N/A   Clear
9:45 PM 73.4 °F - 62.6 °F 69% 29.91 in 10.0 mi South 4.6 mph - N/A   Scattered Clouds
9:55 PM 73.0 °F - 63.3 °F 71% 29.91 in 10.0 mi South 4.6 mph - N/A   Clear
10:15 PM 73.0 °F - 63.1 °F 71% 29.90 in 10.0 mi SSE 5.8 mph - N/A   Clear
10:35 PM 73.0 °F - 63.0 °F 71% 29.90 in 10.0 mi SSE 4.6 mph - N/A   Scattered Clouds
11:15 PM 73.0 °F - 62.8 °F 70% 29.88 in 10.0 mi SSE 8.1 mph - N/A   Clear
11:35 PM 73.2 °F - 62.6 °F 69% 29.89 in 10.0 mi South 6.9 mph - N/A   Clear
11:55 PM 73.4 °F - 62.2 °F 68% 29.88 in 10.0 mi SSE 8.1 mph - N/A   Scattered Clouds